Погода в Новом Уояне

Россия / Республика Бурятия     56°08′19″N   111°43′42″E
темп.,
°C
ветер,
м/с
пор.,
м/с
влажн.,
%
обл.,
%
осадки,
мм/ч
давл.,
гПа
погр.,
м
12 апреля, пн
пн1223:00−13сз32793 0.0 103723
02:00−15ссз22823 0.0 103815
05:00−16ссз22823 0.0 103712
08:00−12ююв11723 0.0 1036260
11:00−8ююв216650 0.0 1033670
14:00−5ююв226152 0.1 1030918
17:00−5ю116071 0.1 1028909
20:00−9ссз228567 0.2 102913
13 апреля, вт
вт1323:00−11ссз228653 0.0 102912
02:00−12ссз228714 0.0 102913
05:00−13ссз218944 0.0 102813
08:00−10ююв118248 0.0 1026296
11:00−6ю236990 0.0 1021676
14:00−4ююз2463100 0.1 1017838
17:00−3ююз3566100 0.1 1013795
20:00−6ююз2395100 0.9 1013182
14 апреля, ср
ср1423:00−7сз119495 0.3 101315
02:00−8ссз229059 0.4 101513
05:00−9сз228541 0.0 101615
08:00−5ю117564 0.0 1016201
11:00−2ююв216952 0.1 1014635
14:00−1ю226199 0.3 1012908
17:00−1ю1159100 0.4 1011902
20:00−4с118797 0.6 101222
15 апреля, чт
чт1523:00−5ссв1193100 0.8 101127
02:00−6сз1195100 1.2 101012
05:00−6сз1193100 0.7 101056
08:00−4зюз0175100 0.8 1010261
11:00−2ююв116599 0.4 1010737
14:00−2ссв2365100 1.8 10111090
17:00−2ссз2458100 1.5 1013804
20:00−6сз3375100 1.9 101747
16 апреля, пт
пт1623:00−8ссз327240 0.2 101934
02:00−9ссз327723 0.2 102024
05:00−10ссз22785 0.0 102223
08:00−7ю117015 0.0 1021300
11:00−4ю246551 0.0 1018846
14:00−1ююз464997 0.0 10141319
17:00−2ююз4758100 0.1 1013823
20:00−5ююз2574100 0.2 1013216